METAR LSZS 080150Z AUTO VRB02KT 9999 BKN050 M08/M10 Q1015=
Diese Daten sind ohne Gewähr und dürfen nicht für die Flugvorbereitung verwendet werden.
Information contained in this website shall not be used for flight operation purposes.